User: anonymous   Login
Location: Unspecified
(0.0000°N, 0.0000°E)
Time: 09:59:44
(UTC+00:00)
Language:

COSMOS 2437 - Orbit

View from above orbital plane
View from above orbital plane
View from above satellite
View from above satellite

Ground track
Ground track

The orbit is defined by the following mean orbital elements,

1 32954U          26104.22903855 +.00000000 +00000-0 -37458-4 0 00005
2 32954  82.5042  37.2203 0021510 107.1198  47.4577 12.42757783    09
Epoch (UTC): 14 April 2026 05:29:48
Eccentricity: 0.0021510
inclination: 82.5042°
perigee height: 1478 km
apogee height: 1512 km
right ascension of ascending node: 37.2203°
argument of perigee: 107.1198°
revolutions per day: 12.42757783
mean anomaly at epoch: 47.4577°

The dashed part of the orbit path shows where the satellite is in the earth's shadow,  

DLR